Toluca Jose Maria, Mexico

12:08 PM CDT on September 26, 2017 (GMT -0500)
Lic Adolfo Lopez Mateos International

Weather History for MMTO - January, 2013

Change the Weather History Date:

Wednesday, January 23, 2013

  Actual Average Record
Temperature  
Mean Temperature 48 °F -  
Max Temperature 62 °F 65 °F 82 °F (1998)
Min Temperature 33 °F 31 °F 23 °F (1998)
Degree Days  
Heating Degree Days 18    
Moisture  
Dew Point 39 °F    
Average Humidity 77    
Maximum Humidity 93    
Minimum Humidity 37    
Precipitation  
Precipitation 0.00 in - - ()
Sea Level Pressure  
Sea Level Pressure 30.40 in    
Wind  
Wind Speed 2 mph ()    
Max Wind Speed 12 mph    
Max Gust Speed -    
Visibility 2.6 miles    
Events Fog    
Averages and records for this station are not official NWS values.
T = Trace of Precipitation, MM = Missing Value Source: Averaged Metar Reports

Daily Weather History Graph

Daily Weather History Graph

Search for Another Location

Airport or City:

Trip Planner

Search our weather history database for the weather conditions in past years. The results will help you decide how hot, cold, wet, or windy it might be!

Date:

Astronomy

Jan. 23, 2013 Rise Set
Actual Time 7:14 AM CST 6:25 PM CST
Civil Twilight 6:51 AM CST 6:49 PM CST
Nautical Twilight 6:24 AM CST 7:15 PM CST
Astronomical Twilight 5:58 AM CST 7:42 PM CST
Moon 3:43 PM CST (1/23) 4:21 AM CST (1/23)
Length of Visible Light 11h 57m
Length of Day
11h 11m
Waxing Gibbous, 89% of the Moon is Illuminated
Jan 23
Waxing Gibbous
Jan 26
Full
Feb 3
Last Quarter
Feb 10
New
Feb 17
First Quarter

Hourly Weather History & Observations

Time (CST) Temp. Windchill Dew Point Humidity Pressure Visibility Wind Dir Wind Speed Gust Speed Precip Events Conditions
12:45 AM 42.8 °F - 39.2 °F 87% 30.44 in 5.0 mi Calm Calm - N/A   Partly Cloudy
1:17 AM 41.0 °F - 39.2 °F 93% 30.45 in 0.5 mi Calm Calm - N/A Fog Fog
1:45 AM 41.0 °F - 37.4 °F 87% 30.45 in 0.5 mi Calm Calm - N/A Fog Fog
2:12 AM 39.2 °F - 37.4 °F 93% 30.45 in 2.0 mi Calm Calm - N/A   Partly Cloudy
2:45 AM 39.2 °F - 37.4 °F 93% 30.07 in 2.0 mi Calm Calm - N/A   Partly Cloudy
3:45 AM 39.2 °F 37.0 °F 35.6 °F 87% 30.44 in 2.0 mi SW 3.5 mph - N/A   Partly Cloudy
4:45 AM 37.4 °F - 35.6 °F 93% 30.44 in 2.0 mi Calm Calm - N/A   Partly Cloudy
5:45 AM 33.8 °F - 32.0 °F 93% 30.22 in 0.5 mi Calm Calm - N/A Fog Fog
6:30 AM 37.4 °F - 33.8 °F 87% 30.47 in 0.5 mi Calm Calm - N/A Fog Fog
6:45 AM 37.4 °F - 35.6 °F 93% 30.48 in 0.5 mi Calm Calm - N/A Fog Fog
7:30 AM 39.2 °F 37.0 °F 35.6 °F 87% 30.49 in 0.5 mi SSW 3.5 mph - N/A Fog Fog
7:45 AM 39.2 °F 37.0 °F 37.4 °F 93% 30.50 in 0.5 mi SW 3.5 mph - N/A Fog Fog
8:30 AM 41.0 °F - 37.4 °F 87% 30.52 in 0.1 mi Calm Calm - N/A Fog Fog
8:45 AM 41.0 °F - 37.4 °F 87% 30.53 in 0.1 mi Calm Calm - N/A Fog Fog
9:45 AM 42.8 °F - 39.2 °F 87% 30.54 in 0.1 mi Calm Calm - N/A Fog Fog
10:04 AM 42.8 °F - 41.0 °F 93% 30.55 in 0.2 mi Calm Calm - N/A Fog Fog
10:30 AM 44.6 °F - 41.0 °F 87% 30.56 in 0.5 mi Calm Calm - N/A Fog Fog
10:45 AM 48.2 °F - 42.8 °F 82% 30.55 in 0.5 mi ENE 3.5 mph - N/A Fog Fog
11:10 AM 46.4 °F - 44.6 °F 93% 30.55 in 1.0 mi Calm Calm - N/A   Scattered Clouds
11:45 AM 51.8 °F - 48.2 °F 88% 30.14 in 2.0 mi NW 5.8 mph - N/A   Scattered Clouds
12:11 PM 57.2 °F - 41.0 °F 55% 30.53 in 5.0 mi WNW 5.8 mph - N/A   Scattered Clouds
12:45 PM 59.0 °F - 41.0 °F 51% 30.49 in 5.0 mi SSW 4.6 mph - N/A   Scattered Clouds
1:45 PM 62.6 °F - 35.6 °F 37% 30.45 in 6.0 mi Calm Calm - N/A   Mostly Cloudy
2:45 PM 60.8 °F - 35.6 °F 39% 30.00 in 5.0 mi NNW 3.5 mph - N/A   Mostly Cloudy
3:45 PM 60.8 °F - 35.6 °F 39% 30.41 in 5.0 mi NNW 11.5 mph - N/A   Mostly Cloudy
4:55 PM 59.0 °F - 37.4 °F 45% 30.42 in 5.0 mi WNW 8.1 mph - N/A   Mostly Cloudy
5:45 PM 55.4 °F - 41.0 °F 58% 30.07 in 5.0 mi ENE 11.5 mph - N/A   Mostly Cloudy
6:45 PM 53.6 °F - 41.0 °F 62% 30.46 in 4.0 mi ENE 9.2 mph - N/A   Mostly Cloudy
7:45 PM 51.8 °F - 39.2 °F 62% 30.47 in 5.0 mi ENE 6.9 mph - N/A   Mostly Cloudy
8:45 PM 51.8 °F - 39.2 °F 62% 30.04 in 5.0 mi NE 2.3 mph - N/A   Overcast
9:45 PM 48.2 °F - 39.2 °F 71% 30.51 in 5.0 mi North 3.5 mph - N/A   Overcast
10:45 PM 46.4 °F 42.4 °F 41.0 °F 81% 30.52 in 5.0 mi NW 8.1 mph - N/A   Overcast
11:45 PM 44.6 °F 41.4 °F 39.2 °F 81% 30.13 in 4.0 mi West 5.8 mph - N/A   Mostly Cloudy